Location: Duac?
(36.9744°N, 30.6500°E)
Time: 16:18:09
(UTC+00:00)

CZ-2D R/B - Pass Details

Date: 05 August 2024
Orbit: 790 x 842 km, 98.8° (Epoch: 11 September)

Event Time Altitude Azimuth Distance (km) Brightness Sun altitude
Rises 23:42:50 0° 17° (NNE) 3,318 6.4 -31.5°
Reaches altitude 10° 23:45:12 10° 20° (NNE) 2,391 5.4 -31.3°
Enters shadow 23:49:42 57° 62° (ENE) 953 2.6 -30.8°
